Time,TemperatureF,DewpointF,PressureIn,WindDirection,WindDirectionDegrees,WindSpeedMPH,WindSpeedGustMPH,Humidity,HourlyPrecipIn,Conditions,Clouds,dailyrainin,SolarRadiationWatts/m^2,SoftwareType,DateUTC
2013-06-07 00:01:00,58.8,57.4,29.99,NE,43,0.0,1.0,95,0.04,,,0.00,520,WeatherCatV1.14B232,2013-06-07 04:01:00,
2013-06-07 00:06:00,58.8,57.4,29.99,NE,43,2.0,4.0,95,0.04,,,0.00,520,WeatherCatV1.14B232,2013-06-07 04:06:00,
2013-06-07 00:11:00,58.8,57.4,29.99,NE,43,1.0,2.0,95,0.04,,,0.00,520,WeatherCatV1.14B232,2013-06-07 04:11:00,
2013-06-07 00:16:00,58.7,57.3,29.98,NE,43,1.0,3.0,95,0.00,,,0.00,520,WeatherCatV1.14B232,2013-06-07 04:16:00,
2013-06-07 00:21:00,58.7,57.3,29.98,NE,43,0.0,0.0,95,0.00,,,0.00,520,WeatherCatV1.14B232,2013-06-07 04:21:00,
2013-06-07 00:26:00,58.6,57.2,29.99,NE,43,0.0,0.0,95,0.00,,,0.01,520,WeatherCatV1.14B232,2013-06-07 04:26:00,
2013-06-07 00:31:00,58.6,57.2,29.98,NE,43,0.0,0.0,95,0.00,,,0.01,520,WeatherCatV1.14B232,2013-06-07 04:31:00,
2013-06-07 00:36:00,58.7,57.6,29.98,NE,42,0.0,0.0,96,0.00,,,0.01,520,WeatherCatV1.14B232,2013-06-07 04:36:00,
2013-06-07 00:41:00,58.6,57.2,29.98,NE,43,0.0,0.0,95,0.00,,,0.01,520,WeatherCatV1.14B232,2013-06-07 04:41:00,
2013-06-07 00:46:00,58.6,57.2,29.98,NE,43,0.0,0.0,95,0.00,,,0.01,520,WeatherCatV1.14B232,2013-06-07 04:46:00,
2013-06-07 00:51:00,58.6,57.2,29.99,NE,43,0.0,0.0,95,0.00,,,0.02,520,WeatherCatV1.14B232,2013-06-07 04:51:00,
2013-06-07 00:56:00,58.7,57.6,29.99,NE,43,0.0,1.0,96,0.00,,,0.02,520,WeatherCatV1.14B232,2013-06-07 04:56:00,
2013-06-07 01:01:00,58.7,57.6,29.98,NE,43,0.0,1.0,96,0.00,,,0.02,520,WeatherCatV1.14B232,2013-06-07 05:01:00,
2013-06-07 01:06:00,58.7,57.6,29.97,NE,43,0.0,1.0,96,0.00,,,0.02,520,WeatherCatV1.14B232,2013-06-07 05:06:00,
2013-06-07 01:11:00,58.7,57.6,29.97,NE,43,0.0,0.0,96,0.00,,,0.02,520,WeatherCatV1.14B232,2013-06-07 05:11:00,
2013-06-07 01:16:00,58.7,57.6,29.97,NE,43,0.0,1.0,96,0.00,,,0.02,520,WeatherCatV1.14B232,2013-06-07 05:16:00,
2013-06-07 01:21:00,58.6,57.5,29.97,NE,43,1.0,2.0,96,0.00,,,0.02,520,WeatherCatV1.14B232,2013-06-07 05:21:00,
2013-06-07 01:26:00,58.7,57.6,29.98,NE,43,0.0,1.0,96,0.00,,,0.02,520,WeatherCatV1.14B232,2013-06-07 05:26:00,
2013-06-07 01:31:00,58.8,57.7,29.97,NE,43,0.0,2.0,96,0.00,,,0.02,520,WeatherCatV1.14B232,2013-06-07 05:31:00,
2013-06-07 01:36:00,58.8,57.7,29.96,NE,43,0.0,1.0,96,0.00,,,0.02,520,WeatherCatV1.14B232,2013-06-07 05:36:00,
2013-06-07 01:41:00,58.7,57.6,29.97,NE,43,0.0,0.0,96,0.00,,,0.02,520,WeatherCatV1.14B232,2013-06-07 05:41:00,
2013-06-07 01:46:00,58.7,57.6,29.96,NE,43,0.0,0.0,96,0.00,,,0.02,520,WeatherCatV1.14B232,2013-06-07 05:46:00,
2013-06-07 01:51:00,58.7,57.6,29.96,NE,43,0.0,0.0,96,0.00,,,0.02,520,WeatherCatV1.14B232,2013-06-07 05:51:00,
2013-06-07 01:56:00,58.8,57.7,29.95,NE,43,0.0,1.0,96,0.00,,,0.03,520,WeatherCatV1.14B232,2013-06-07 05:56:00,
2013-06-07 02:01:00,58.8,57.7,29.96,NE,43,0.0,1.0,96,0.00,,,0.03,520,WeatherCatV1.14B232,2013-06-07 06:01:00,
2013-06-07 02:06:00,58.8,57.7,29.96,NE,43,0.0,1.0,96,0.06,,,0.04,520,WeatherCatV1.14B232,2013-06-07 06:06:00,
2013-06-07 02:11:00,58.7,57.6,29.96,NE,43,0.0,0.0,96,0.13,,,0.05,520,WeatherCatV1.14B232,2013-06-07 06:11:00,
2013-06-07 02:16:00,58.6,57.5,29.96,NE,43,0.0,1.0,96,0.10,,,0.06,520,WeatherCatV1.14B232,2013-06-07 06:16:00,
2013-06-07 02:21:00,58.6,57.5,29.95,NE,43,0.0,1.0,96,0.09,,,0.06,520,WeatherCatV1.14B232,2013-06-07 06:21:00,
2013-06-07 02:26:00,58.6,57.5,29.95,NE,43,0.0,0.0,96,0.06,,,0.07,520,WeatherCatV1.14B232,2013-06-07 06:26:00,
2013-06-07 02:31:00,58.6,57.5,29.95,NE,43,0.0,1.0,96,0.06,,,0.07,520,WeatherCatV1.14B232,2013-06-07 06:31:00,
2013-06-07 02:36:00,58.5,57.4,29.95,NE,43,0.0,1.0,96,0.05,,,0.07,520,WeatherCatV1.14B232,2013-06-07 06:36:00,
2013-06-07 02:41:00,58.4,57.3,29.95,NE,43,0.0,0.0,96,0.04,,,0.08,520,WeatherCatV1.14B232,2013-06-07 06:41:00,
2013-06-07 02:46:00,58.4,57.3,29.96,NE,43,0.0,0.0,96,0.04,,,0.08,520,WeatherCatV1.14B232,2013-06-07 06:46:00,
2013-06-07 02:51:00,58.4,57.3,29.95,NE,43,1.0,1.0,96,0.04,,,0.08,520,WeatherCatV1.14B232,2013-06-07 06:51:00,
2013-06-07 02:56:00,58.3,57.2,29.95,NE,43,0.0,3.0,96,0.13,,,0.09,520,WeatherCatV1.14B232,2013-06-07 06:56:00,
2013-06-07 03:01:00,58.2,57.1,29.95,NE,43,0.0,1.0,96,0.12,,,0.10,520,WeatherCatV1.14B232,2013-06-07 07:01:00,
2013-06-07 03:06:00,58.2,57.1,29.95,NE,43,0.0,1.0,96,0.06,,,0.10,520,WeatherCatV1.14B232,2013-06-07 07:06:00,
2013-06-07 03:11:00,58.2,57.1,29.94,NE,43,0.0,0.0,96,0.04,,,0.10,520,WeatherCatV1.14B232,2013-06-07 07:11:00,
2013-06-07 03:16:00,58.2,57.1,29.94,NE,43,1.0,1.0,96,0.04,,,0.11,520,WeatherCatV1.14B232,2013-06-07 07:16:00,
2013-06-07 03:21:00,58.3,57.2,29.94,NE,43,0.0,1.0,96,0.04,,,0.11,520,WeatherCatV1.14B232,2013-06-07 07:21:00,
2013-06-07 03:26:00,58.3,57.2,29.93,NE,43,0.0,0.0,96,0.04,,,0.11,520,WeatherCatV1.14B232,2013-06-07 07:26:00,
2013-06-07 03:31:00,58.3,57.2,29.93,NE,43,0.0,1.0,96,0.04,,,0.12,520,WeatherCatV1.14B232,2013-06-07 07:31:00,
2013-06-07 03:36:00,58.2,57.1,29.93,NE,43,0.0,1.0,96,0.04,,,0.12,520,WeatherCatV1.14B232,2013-06-07 07:36:00,
2013-06-07 03:41:00,58.2,57.1,29.93,NE,43,0.0,1.0,96,0.04,,,0.12,520,WeatherCatV1.14B232,2013-06-07 07:41:00,
2013-06-07 03:46:00,58.3,57.2,29.93,NE,43,0.0,0.0,96,0.00,,,0.12,520,WeatherCatV1.14B232,2013-06-07 07:46:00,
2013-06-07 03:51:00,58.4,57.3,29.93,NE,43,0.0,0.0,96,0.00,,,0.12,520,WeatherCatV1.14B232,2013-06-07 07:51:00,
2013-06-07 03:56:00,58.4,57.3,29.92,NE,43,0.0,1.0,96,0.00,,,0.12,520,WeatherCatV1.14B232,2013-06-07 07:56:00,
2013-06-07 04:01:00,58.3,57.2,29.92,NE,43,0.0,1.0,96,0.00,,,0.12,520,WeatherCatV1.14B232,2013-06-07 08:01:00,
2013-06-07 04:06:00,58.3,57.2,29.92,NE,43,0.0,1.0,96,0.00,,,0.13,520,WeatherCatV1.14B232,2013-06-07 08:06:00,
2013-06-07 04:11:00,58.4,57.3,29.92,NE,43,0.0,0.0,96,0.00,,,0.13,520,WeatherCatV1.14B232,2013-06-07 08:11:00,
2013-06-07 04:16:00,58.4,57.3,29.92,NE,43,0.0,0.0,96,0.00,,,0.13,520,WeatherCatV1.14B232,2013-06-07 08:16:00,
2013-06-07 04:21:00,58.5,57.4,29.92,NE,43,0.0,1.0,96,0.00,,,0.13,520,WeatherCatV1.14B232,2013-06-07 08:21:00,
2013-06-07 04:26:00,58.5,57.4,29.92,NE,42,0.0,0.0,96,0.00,,,0.13,520,WeatherCatV1.14B232,2013-06-07 08:26:00,
2013-06-07 04:31:00,58.5,57.4,29.92,NE,43,0.0,0.0,96,0.00,,,0.13,520,WeatherCatV1.14B232,2013-06-07 08:31:00,
2013-06-07 04:36:00,58.6,57.5,29.91,NE,43,0.0,1.0,96,0.00,,,0.14,520,WeatherCatV1.14B232,2013-06-07 08:36:00,
2013-06-07 04:41:00,58.6,57.5,29.91,NE,43,0.0,1.0,96,0.12,,,0.15,520,WeatherCatV1.14B232,2013-06-07 08:41:00,
2013-06-07 04:46:00,58.6,57.5,29.91,NE,43,0.0,0.0,96,0.10,,,0.16,520,WeatherCatV1.14B232,2013-06-07 08:46:00,
2013-06-07 04:51:00,58.6,57.5,29.91,NE,43,0.0,1.0,96,0.10,,,0.17,520,WeatherCatV1.14B232,2013-06-07 08:51:00,
2013-06-07 04:56:00,58.7,57.6,29.91,NE,43,0.0,0.0,96,0.12,,,0.18,520,WeatherCatV1.14B232,2013-06-07 08:56:00,
2013-06-07 05:01:00,58.8,57.7,29.91,NE,43,0.0,0.0,96,0.15,,,0.19,520,WeatherCatV1.14B232,2013-06-07 09:01:00,
2013-06-07 05:06:00,58.8,57.7,29.91,NE,43,0.0,1.0,96,0.23,,,0.21,520,WeatherCatV1.14B232,2013-06-07 09:06:00,
2013-06-07 05:11:00,58.9,57.8,29.91,NE,43,0.0,0.0,96,0.29,,,0.23,520,WeatherCatV1.14B232,2013-06-07 09:11:00,
2013-06-07 05:16:00,58.9,57.8,29.91,NE,43,0.0,2.0,96,0.26,,,0.25,520,WeatherCatV1.14B232,2013-06-07 09:16:00,
2013-06-07 05:21:00,58.9,57.8,29.91,NE,43,0.0,1.0,96,0.26,,,0.27,520,WeatherCatV1.14B232,2013-06-07 09:21:00,
2013-06-07 05:26:00,58.9,57.8,29.90,NE,43,1.0,1.0,96,0.42,,,0.30,520,WeatherCatV1.14B232,2013-06-07 09:26:00,
2013-06-07 05:31:00,59.0,57.9,29.91,NE,43,0.0,0.0,96,0.47,,,0.34,520,WeatherCatV1.14B232,2013-06-07 09:31:00,
2013-06-07 05:36:00,59.0,57.9,29.91,NE,43,0.0,1.0,96,0.17,,,0.35,520,WeatherCatV1.14B232,2013-06-07 09:36:00,
2013-06-07 05:41:00,59.0,57.9,29.90,NE,43,0.0,1.0,96,0.26,,,0.37,520,WeatherCatV1.14B232,2013-06-07 09:41:00,
2013-06-07 05:46:00,58.9,57.8,29.90,NE,43,0.0,1.0,96,0.17,,,0.39,520,WeatherCatV1.14B232,2013-06-07 09:46:00,
2013-06-07 05:51:00,58.9,57.8,29.90,NE,43,0.0,0.0,96,0.17,,,0.40,520,WeatherCatV1.14B232,2013-06-07 09:51:00,
2013-06-07 05:56:00,58.9,57.8,29.91,NE,43,0.0,1.0,96,0.12,,,0.41,520,WeatherCatV1.14B232,2013-06-07 09:56:00,
2013-06-07 06:01:00,58.8,57.7,29.91,NE,43,0.0,2.0,96,0.15,,,0.42,520,WeatherCatV1.14B232,2013-06-07 10:01:00,
2013-06-07 06:06:00,58.7,57.6,29.91,NE,43,0.0,2.0,96,0.13,,,0.43,520,WeatherCatV1.14B232,2013-06-07 10:06:00,
2013-06-07 06:11:00,58.6,57.5,29.91,NE,43,1.0,1.0,96,0.14,,,0.44,520,WeatherCatV1.14B232,2013-06-07 10:11:00,
2013-06-07 06:16:00,58.5,57.4,29.91,NE,43,0.0,3.0,96,0.13,,,0.45,520,WeatherCatV1.14B232,2013-06-07 10:16:00,
2013-06-07 06:21:00,58.5,57.4,29.91,NE,42,0.0,1.0,96,0.13,,,0.46,520,WeatherCatV1.14B232,2013-06-07 10:21:00,
2013-06-07 06:26:00,58.6,57.5,29.91,NE,43,0.0,1.0,96,0.09,,,0.47,520,WeatherCatV1.14B232,2013-06-07 10:26:00,
2013-06-07 06:31:00,58.5,57.4,29.91,NE,43,0.0,2.0,96,0.08,,,0.47,520,WeatherCatV1.14B232,2013-06-07 10:31:00,
2013-06-07 06:36:00,58.4,57.3,29.90,NE,43,1.0,2.0,96,0.05,,,0.48,520,WeatherCatV1.14B232,2013-06-07 10:36:00,
2013-06-07 06:41:00,58.3,57.2,29.90,NE,43,1.0,1.0,96,0.05,,,0.48,520,WeatherCatV1.14B232,2013-06-07 10:41:00,
2013-06-07 06:46:00,58.2,57.1,29.90,NE,43,0.0,2.0,96,0.05,,,0.48,520,WeatherCatV1.14B232,2013-06-07 10:46:00,
2013-06-07 06:51:00,58.0,56.9,29.90,NE,43,0.0,3.0,96,0.05,,,0.49,520,WeatherCatV1.14B232,2013-06-07 10:51:00,
2013-06-07 06:56:00,58.0,56.9,29.90,NE,43,1.0,2.0,96,0.11,,,0.50,520,WeatherCatV1.14B232,2013-06-07 10:56:00,
2013-06-07 07:01:00,58.0,56.9,29.90,NE,43,2.0,3.0,96,0.22,,,0.52,520,WeatherCatV1.14B232,2013-06-07 11:01:00,
2013-06-07 07:06:00,57.9,56.8,29.89,NE,43,0.0,1.0,96,0.22,,,0.54,520,WeatherCatV1.14B232,2013-06-07 11:06:00,
2013-06-07 07:11:00,57.9,56.8,29.89,NE,43,0.0,2.0,96,0.18,,,0.55,520,WeatherCatV1.14B232,2013-06-07 11:11:00,
2013-06-07 07:16:00,57.8,56.7,29.89,NE,43,1.0,2.0,96,0.12,,,0.56,520,WeatherCatV1.14B232,2013-06-07 11:16:00,
2013-06-07 07:21:00,57.8,56.7,29.89,NE,43,0.0,2.0,96,0.15,,,0.58,520,WeatherCatV1.14B232,2013-06-07 11:21:00,
2013-06-07 07:26:00,57.8,56.7,29.90,NE,43,0.0,2.0,96,0.11,,,0.58,520,WeatherCatV1.14B232,2013-06-07 11:26:00,
2013-06-07 07:31:00,57.8,56.7,29.90,NE,43,2.0,2.0,96,0.07,,,0.59,520,WeatherCatV1.14B232,2013-06-07 11:31:00,
2013-06-07 07:36:00,57.8,56.7,29.90,NE,43,0.0,4.0,96,0.07,,,0.59,520,WeatherCatV1.14B232,2013-06-07 11:36:00,
2013-06-07 07:41:00,57.8,56.7,29.90,NE,43,1.0,2.0,96,0.06,,,0.60,520,WeatherCatV1.14B232,2013-06-07 11:41:00,
2013-06-07 07:46:00,57.8,56.7,29.90,NE,43,1.0,2.0,96,0.11,,,0.61,520,WeatherCatV1.14B232,2013-06-07 11:46:00,
2013-06-07 07:51:00,57.9,56.8,29.90,NE,43,0.0,0.0,96,0.08,,,0.61,520,WeatherCatV1.14B232,2013-06-07 11:51:00,
2013-06-07 07:56:00,57.9,57.1,29.89,NE,43,1.0,1.0,97,0.06,,,0.62,520,WeatherCatV1.14B232,2013-06-07 11:56:00,
2013-06-07 08:01:00,57.9,57.1,29.89,NE,43,2.0,2.0,97,0.06,,,0.62,520,WeatherCatV1.14B232,2013-06-07 12:01:00,
2013-06-07 08:06:00,57.8,56.7,29.89,NE,43,0.0,1.0,96,0.05,,,0.62,520,WeatherCatV1.14B232,2013-06-07 12:06:00,
2013-06-07 08:11:00,57.8,56.7,29.89,NE,43,2.0,3.0,96,0.00,,,0.62,520,WeatherCatV1.14B232,2013-06-07 12:11:00,
2013-06-07 08:16:00,57.7,56.6,29.89,NE,43,0.0,1.0,96,0.00,,,0.62,520,WeatherCatV1.14B232,2013-06-07 12:16:00,
2013-06-07 08:21:00,57.7,56.6,29.89,NE,43,0.0,1.0,96,0.00,,,0.62,520,WeatherCatV1.14B232,2013-06-07 12:21:00,
2013-06-07 08:26:00,57.8,57.0,29.89,NE,43,1.0,1.0,97,0.00,,,0.62,520,WeatherCatV1.14B232,2013-06-07 12:26:00,
2013-06-07 08:31:00,57.8,57.0,29.89,NE,43,1.0,4.0,97,0.00,,,0.63,520,WeatherCatV1.14B232,2013-06-07 12:31:00,
2013-06-07 08:36:00,57.8,57.0,29.89,NE,43,1.0,2.0,97,0.00,,,0.63,520,WeatherCatV1.14B232,2013-06-07 12:36:00,
2013-06-07 08:41:00,57.8,57.0,29.89,NE,43,2.0,2.0,97,0.00,,,0.63,520,WeatherCatV1.14B232,2013-06-07 12:41:00,
2013-06-07 08:46:00,57.8,57.0,29.89,NE,43,1.0,2.0,97,0.04,,,0.64,520,WeatherCatV1.14B232,2013-06-07 12:46:00,
2013-06-07 08:51:00,57.8,57.0,29.89,NE,43,0.0,1.0,97,0.04,,,0.64,520,WeatherCatV1.14B232,2013-06-07 12:51:00,
2013-06-07 08:56:00,57.9,57.1,29.89,NE,43,1.0,3.0,97,0.07,,,0.65,520,WeatherCatV1.14B232,2013-06-07 12:56:00,
2013-06-07 09:01:00,57.8,57.0,29.89,NE,43,0.0,2.0,97,0.11,,,0.66,520,WeatherCatV1.14B232,2013-06-07 13:01:00,
2013-06-07 09:06:00,57.9,57.1,29.89,NE,43,0.0,2.0,97,0.12,,,0.67,520,WeatherCatV1.14B232,2013-06-07 13:06:00,
2013-06-07 09:11:00,57.9,57.1,29.89,NE,43,0.0,2.0,97,0.11,,,0.68,520,WeatherCatV1.14B232,2013-06-07 13:11:00,
2013-06-07 09:16:00,58.1,57.3,29.89,NE,43,0.0,0.0,97,0.12,,,0.69,520,WeatherCatV1.14B232,2013-06-07 13:16:00,
2013-06-07 09:21:00,58.2,57.4,29.89,NE,43,0.0,1.0,97,0.10,,,0.69,520,WeatherCatV1.14B232,2013-06-07 13:21:00,
2013-06-07 09:26:00,58.3,57.5,29.89,NE,43,2.0,2.0,97,0.09,,,0.70,520,WeatherCatV1.14B232,2013-06-07 13:26:00,
2013-06-07 09:31:00,58.3,57.5,29.89,NE,43,1.0,1.0,97,0.07,,,0.71,520,WeatherCatV1.14B232,2013-06-07 13:31:00,
2013-06-07 09:36:00,58.4,57.5,29.89,NE,43,3.0,3.0,97,0.07,,,0.71,520,WeatherCatV1.14B232,2013-06-07 13:36:00,
2013-06-07 09:41:00,58.5,57.6,29.88,NE,43,0.0,2.0,97,0.09,,,0.72,520,WeatherCatV1.14B232,2013-06-07 13:41:00,
2013-06-07 09:46:00,58.6,57.7,29.88,NE,43,0.0,1.0,97,0.06,,,0.72,520,WeatherCatV1.14B232,2013-06-07 13:46:00,
2013-06-07 09:51:00,58.7,57.8,29.88,NE,43,1.0,3.0,97,0.06,,,0.73,520,WeatherCatV1.14B232,2013-06-07 13:51:00,
2013-06-07 09:56:00,58.7,57.8,29.88,NE,43,0.0,2.0,97,0.07,,,0.74,520,WeatherCatV1.14B232,2013-06-07 13:56:00,
2013-06-07 10:01:00,58.8,57.9,29.87,NE,43,0.0,1.0,97,0.07,,,0.74,520,WeatherCatV1.14B232,2013-06-07 14:01:00,
2013-06-07 10:06:00,59.0,58.1,29.88,NE,43,0.0,1.0,97,0.06,,,0.75,520,WeatherCatV1.14B232,2013-06-07 14:06:00,
2013-06-07 10:11:00,59.0,58.1,29.87,NE,43,0.0,1.0,97,0.06,,,0.75,520,WeatherCatV1.14B232,2013-06-07 14:11:00,
2013-06-07 10:16:00,59.1,58.2,29.88,NE,43,1.0,5.0,97,0.06,,,0.76,520,WeatherCatV1.14B232,2013-06-07 14:16:00,
2013-06-07 10:21:00,59.1,58.2,29.88,NE,43,3.0,10.0,97,0.06,,,0.76,520,WeatherCatV1.14B232,2013-06-07 14:21:00,
2013-06-07 10:26:00,59.1,58.2,29.87,NE,43,1.0,3.0,97,0.06,,,0.77,520,WeatherCatV1.14B232,2013-06-07 14:26:00,
2013-06-07 10:31:00,59.2,58.3,29.87,NE,42,0.0,1.0,97,0.06,,,0.77,520,WeatherCatV1.14B232,2013-06-07 14:31:00,
2013-06-07 10:36:00,59.4,58.5,29.87,NE,43,2.0,4.0,97,0.06,,,0.78,520,WeatherCatV1.14B232,2013-06-07 14:36:00,
2013-06-07 10:41:00,59.3,58.4,29.87,NE,43,0.0,6.0,97,0.06,,,0.78,520,WeatherCatV1.14B232,2013-06-07 14:41:00,
2013-06-07 10:46:00,59.4,58.5,29.87,NE,43,0.0,3.0,97,0.08,,,0.79,520,WeatherCatV1.14B232,2013-06-07 14:46:00,
2013-06-07 10:51:00,59.5,58.6,29.86,NE,43,0.0,0.0,97,0.07,,,0.80,520,WeatherCatV1.14B232,2013-06-07 14:51:00,
2013-06-07 10:56:00,59.6,58.7,29.86,NE,43,1.0,3.0,97,0.07,,,0.80,520,WeatherCatV1.14B232,2013-06-07 14:56:00,
2013-06-07 11:01:00,59.6,58.7,29.86,NE,43,0.0,2.0,97,0.06,,,0.80,520,WeatherCatV1.14B232,2013-06-07 15:01:00,
2013-06-07 11:06:00,59.7,58.8,29.86,NE,43,1.0,1.0,97,0.05,,,0.81,520,WeatherCatV1.14B232,2013-06-07 15:06:00,
2013-06-07 11:11:00,59.8,58.9,29.86,NE,43,0.0,0.0,97,0.11,,,0.82,520,WeatherCatV1.14B232,2013-06-07 15:11:00,
2013-06-07 11:16:00,59.9,59.0,29.86,NE,43,0.0,0.0,97,0.09,,,0.82,520,WeatherCatV1.14B232,2013-06-07 15:16:00,
2013-06-07 11:21:00,60.0,59.1,29.86,NE,43,1.0,1.0,97,0.08,,,0.83,520,WeatherCatV1.14B232,2013-06-07 15:21:00,
2013-06-07 11:23:00,60.0,59.1,29.86,NE,43,0.0,2.0,97,0.08,,,0.83,520,WeatherCatV1.14B232,2013-06-07 15:23:00,
2013-06-07 11:26:00,60.1,59.2,29.86,NE,43,0.0,1.0,97,0.06,,,0.83,520,WeatherCatV1.14B232,2013-06-07 15:26:00,
2013-06-07 11:31:00,60.1,59.2,29.86,NE,43,1.0,2.0,97,0.04,,,0.83,520,WeatherCatV1.14B232,2013-06-07 15:31:00,
2013-06-07 11:36:00,60.0,59.1,29.86,NE,43,1.0,2.0,97,0.04,,,0.84,520,WeatherCatV1.14B232,2013-06-07 15:36:00,
2013-06-07 11:41:00,60.0,59.1,29.86,NE,43,1.0,3.0,97,0.07,,,0.85,520,WeatherCatV1.14B232,2013-06-07 15:41:00,
2013-06-07 11:46:00,60.2,59.3,29.86,NE,43,0.0,1.0,97,0.07,,,0.85,520,WeatherCatV1.14B232,2013-06-07 15:46:00,
2013-06-07 11:51:00,60.1,59.2,29.86,NE,43,0.0,4.0,97,0.06,,,0.86,520,WeatherCatV1.14B232,2013-06-07 15:51:00,
2013-06-07 11:56:00,60.1,59.2,29.86,NE,43,0.0,1.0,97,0.06,,,0.86,520,WeatherCatV1.14B232,2013-06-07 15:56:00,
2013-06-07 12:01:00,60.2,59.3,29.86,NE,43,0.0,2.0,97,0.07,,,0.87,520,WeatherCatV1.14B232,2013-06-07 16:01:00,
2013-06-07 12:06:00,60.1,59.2,29.86,NE,43,0.0,0.0,97,0.10,,,0.88,520,WeatherCatV1.14B232,2013-06-07 16:06:00,
2013-06-07 12:11:00,60.3,59.4,29.86,NE,43,0.0,2.0,97,0.09,,,0.89,520,WeatherCatV1.14B232,2013-06-07 16:11:00,
2013-06-07 12:16:00,60.3,59.4,29.86,NE,43,0.0,4.0,97,0.09,,,0.89,520,WeatherCatV1.14B232,2013-06-07 16:16:00,
2013-06-07 12:21:00,60.2,59.3,29.86,NE,43,1.0,4.0,97,0.32,,,0.91,520,WeatherCatV1.14B232,2013-06-07 16:21:00,
2013-06-07 12:26:00,60.3,59.4,29.86,NE,43,0.0,1.0,97,0.17,,,0.92,520,WeatherCatV1.14B232,2013-06-07 16:26:00,
2013-06-07 12:31:00,60.5,59.6,29.86,NE,43,2.0,2.0,97,0.09,,,0.93,520,WeatherCatV1.14B232,2013-06-07 16:31:00,
2013-06-07 12:36:00,60.5,59.6,29.86,NE,43,0.0,4.0,97,0.09,,,0.94,520,WeatherCatV1.14B232,2013-06-07 16:36:00,
2013-06-07 12:41:00,60.5,59.6,29.86,NE,42,0.0,0.0,97,0.09,,,0.94,520,WeatherCatV1.14B232,2013-06-07 16:41:00,
2013-06-07 12:46:00,60.5,59.6,29.85,NE,43,0.0,2.0,97,0.09,,,0.95,520,WeatherCatV1.14B232,2013-06-07 16:46:00,
2013-06-07 12:51:00,60.6,59.7,29.85,NE,43,0.0,1.0,97,0.07,,,0.95,520,WeatherCatV1.14B232,2013-06-07 16:51:00,
2013-06-07 12:56:00,60.8,59.9,29.85,NE,43,0.0,1.0,97,0.07,,,0.96,520,WeatherCatV1.14B232,2013-06-07 16:56:00,
2013-06-07 13:01:00,60.9,60.0,29.85,NE,43,0.0,2.0,97,0.07,,,0.97,520,WeatherCatV1.14B232,2013-06-07 17:01:00,
2013-06-07 13:06:00,60.8,59.9,29.85,NE,43,0.0,0.0,97,0.13,,,0.98,520,WeatherCatV1.14B232,2013-06-07 17:06:00,
2013-06-07 13:11:00,60.8,59.9,29.85,NE,43,0.0,1.0,97,0.12,,,0.99,520,WeatherCatV1.14B232,2013-06-07 17:11:00,
2013-06-07 13:16:00,60.8,59.9,29.85,NE,42,0.0,1.0,97,0.10,,,0.99,520,WeatherCatV1.14B232,2013-06-07 17:16:00,
2013-06-07 13:21:00,60.8,59.9,29.85,NE,43,0.0,1.0,97,0.08,,,1.00,520,WeatherCatV1.14B232,2013-06-07 17:21:00,
2013-06-07 13:26:00,60.6,59.5,29.85,NE,43,0.0,1.0,96,0.27,,,1.02,520,WeatherCatV1.14B232,2013-06-07 17:26:00,
2013-06-07 13:31:00,60.6,59.5,29.84,NE,43,1.0,1.0,96,0.19,,,1.04,520,WeatherCatV1.14B232,2013-06-07 17:31:00,
2013-06-07 13:36:00,60.5,59.4,29.84,NE,43,1.0,1.0,96,0.14,,,1.05,520,WeatherCatV1.14B232,2013-06-07 17:36:00,
2013-06-07 13:41:00,60.5,59.4,29.84,NE,43,0.0,3.0,96,0.11,,,1.06,520,WeatherCatV1.14B232,2013-06-07 17:41:00,
2013-06-07 13:46:00,60.4,59.3,29.84,NE,43,1.0,2.0,96,0.09,,,1.07,520,WeatherCatV1.14B232,2013-06-07 17:46:00,
2013-06-07 13:51:00,60.5,59.6,29.84,NE,43,1.0,2.0,97,0.09,,,1.07,520,WeatherCatV1.14B232,2013-06-07 17:51:00,
2013-06-07 13:56:00,60.4,59.3,29.83,NE,43,0.0,1.0,96,0.13,,,1.08,520,WeatherCatV1.14B232,2013-06-07 17:56:00,
2013-06-07 14:01:00,60.3,59.2,29.84,NE,43,4.0,4.0,96,0.16,,,1.10,520,WeatherCatV1.14B232,2013-06-07 18:01:00,
2013-06-07 14:06:00,60.2,59.1,29.83,NE,43,1.0,1.0,96,0.14,,,1.11,520,WeatherCatV1.14B232,2013-06-07 18:06:00,
2013-06-07 14:11:00,60.3,59.2,29.83,NE,43,0.0,3.0,96,0.20,,,1.13,520,WeatherCatV1.14B232,2013-06-07 18:11:00,
2013-06-07 14:16:00,60.3,59.2,29.83,NE,43,0.0,4.0,96,0.18,,,1.14,520,WeatherCatV1.14B232,2013-06-07 18:16:00,
2013-06-07 14:21:00,60.2,59.1,29.83,NE,42,1.0,6.0,96,0.11,,,1.15,520,WeatherCatV1.14B232,2013-06-07 18:21:00,
2013-06-07 14:26:00,60.1,59.0,29.83,NE,43,0.0,1.0,96,0.11,,,1.16,520,WeatherCatV1.14B232,2013-06-07 18:26:00,
2013-06-07 14:31:00,60.2,59.1,29.83,NE,43,1.0,4.0,96,0.12,,,1.17,520,WeatherCatV1.14B232,2013-06-07 18:31:00,
2013-06-07 14:36:00,60.2,59.1,29.82,NE,43,0.0,1.0,96,0.10,,,1.17,520,WeatherCatV1.14B232,2013-06-07 18:36:00,
2013-06-07 14:41:00,60.2,59.3,29.82,NE,43,0.0,1.0,97,0.10,,,1.18,520,WeatherCatV1.14B232,2013-06-07 18:41:00,
2013-06-07 14:46:00,60.2,59.3,29.82,NE,43,0.0,1.0,97,0.08,,,1.19,520,WeatherCatV1.14B232,2013-06-07 18:46:00,
2013-06-07 14:51:00,60.1,59.0,29.82,NE,42,0.0,1.0,96,0.11,,,1.20,520,WeatherCatV1.14B232,2013-06-07 18:51:00,
2013-06-07 14:56:00,59.9,58.8,29.82,NE,43,0.0,2.0,96,0.14,,,1.21,520,WeatherCatV1.14B232,2013-06-07 18:56:00,
2013-06-07 15:01:00,59.9,58.8,29.81,NE,43,1.0,1.0,96,0.13,,,1.22,520,WeatherCatV1.14B232,2013-06-07 19:01:00,
2013-06-07 15:06:00,60.0,59.1,29.81,NE,42,0.0,0.0,97,0.10,,,1.23,520,WeatherCatV1.14B232,2013-06-07 19:06:00,
2013-06-07 15:11:00,60.1,59.2,29.81,NE,43,1.0,2.0,97,0.09,,,1.23,520,WeatherCatV1.14B232,2013-06-07 19:11:00,
2013-06-07 15:16:00,60.0,59.1,29.81,NE,43,0.0,1.0,97,0.07,,,1.24,520,WeatherCatV1.14B232,2013-06-07 19:16:00,
2013-06-07 15:21:00,59.9,58.8,29.81,NE,43,0.0,3.0,96,0.08,,,1.25,520,WeatherCatV1.14B232,2013-06-07 19:21:00,
2013-06-07 15:26:00,59.9,58.8,29.80,NE,43,1.0,3.0,96,0.08,,,1.25,520,WeatherCatV1.14B232,2013-06-07 19:26:00,
2013-06-07 15:31:00,59.9,59.0,29.80,NE,42,1.0,1.0,97,0.09,,,1.26,520,WeatherCatV1.14B232,2013-06-07 19:31:00,
2013-06-07 15:36:00,59.9,59.0,29.80,NE,43,1.0,2.0,97,0.09,,,1.27,520,WeatherCatV1.14B232,2013-06-07 19:36:00,
2013-06-07 15:41:00,59.9,59.0,29.80,NE,43,0.0,1.0,97,0.15,,,1.28,520,WeatherCatV1.14B232,2013-06-07 19:41:00,
2013-06-07 15:46:00,59.7,58.6,29.80,NE,42,0.0,3.0,96,0.12,,,1.29,520,WeatherCatV1.14B232,2013-06-07 19:46:00,
2013-06-07 15:51:00,59.7,58.6,29.80,NE,43,0.0,1.0,96,0.15,,,1.31,520,WeatherCatV1.14B232,2013-06-07 19:51:00,
2013-06-07 15:56:00,59.8,58.9,29.79,NE,43,0.0,1.0,97,0.20,,,1.32,520,WeatherCatV1.14B232,2013-06-07 19:56:00,
2013-06-07 16:01:00,59.7,58.8,29.79,NE,43,1.0,1.0,97,0.20,,,1.34,520,WeatherCatV1.14B232,2013-06-07 20:01:00,
2013-06-07 16:06:00,59.7,58.8,29.79,NE,43,1.0,1.0,97,0.19,,,1.36,520,WeatherCatV1.14B232,2013-06-07 20:06:00,
2013-06-07 16:11:00,59.6,58.5,29.79,NE,43,1.0,1.0,96,0.13,,,1.37,520,WeatherCatV1.14B232,2013-06-07 20:11:00,
2013-06-07 16:16:00,59.5,58.6,29.78,NE,43,0.0,1.0,97,0.16,,,1.38,520,WeatherCatV1.14B232,2013-06-07 20:16:00,
2013-06-07 16:21:00,59.5,58.6,29.77,NE,43,0.0,1.0,97,0.16,,,1.39,520,WeatherCatV1.14B232,2013-06-07 20:21:00,
2013-06-07 16:26:00,59.5,58.6,29.78,NE,43,1.0,1.0,97,0.20,,,1.41,520,WeatherCatV1.14B232,2013-06-07 20:26:00,
2013-06-07 16:31:00,59.5,58.6,29.78,NE,43,0.0,2.0,97,0.17,,,1.42,520,WeatherCatV1.14B232,2013-06-07 20:31:00,
2013-06-07 16:36:00,59.5,58.6,29.77,NE,43,1.0,2.0,97,0.17,,,1.44,520,WeatherCatV1.14B232,2013-06-07 20:36:00,
2013-06-07 16:41:00,59.6,58.7,29.76,NE,43,1.0,2.0,97,0.12,,,1.45,520,WeatherCatV1.14B232,2013-06-07 20:41:00,
2013-06-07 16:46:00,59.5,58.6,29.76,NE,43,1.0,4.0,97,0.10,,,1.46,520,WeatherCatV1.14B232,2013-06-07 20:46:00,
2013-06-07 16:51:00,59.5,58.6,29.76,NE,43,1.0,5.0,97,0.14,,,1.47,520,WeatherCatV1.14B232,2013-06-07 20:51:00,
2013-06-07 16:56:00,59.5,58.6,29.76,NE,43,1.0,3.0,97,0.16,,,1.48,520,WeatherCatV1.14B232,2013-06-07 20:56:00,
2013-06-07 17:01:00,59.6,58.7,29.75,NE,43,0.0,1.0,97,0.11,,,1.49,520,WeatherCatV1.14B232,2013-06-07 21:01:00,
2013-06-07 17:06:00,59.6,58.7,29.75,NE,43,1.0,2.0,97,0.11,,,1.50,520,WeatherCatV1.14B232,2013-06-07 21:06:00,
2013-06-07 17:11:00,59.5,58.6,29.75,NE,43,1.0,3.0,97,0.09,,,1.50,520,WeatherCatV1.14B232,2013-06-07 21:11:00,
2013-06-07 17:16:00,59.6,58.7,29.75,NE,42,0.0,1.0,97,0.07,,,1.51,520,WeatherCatV1.14B232,2013-06-07 21:16:00,
2013-06-07 17:21:00,59.7,58.8,29.75,NE,43,0.0,2.0,97,0.07,,,1.51,520,WeatherCatV1.14B232,2013-06-07 21:21:00,
2013-06-07 17:26:00,59.7,58.8,29.75,NE,43,0.0,2.0,97,0.05,,,1.52,520,WeatherCatV1.14B232,2013-06-07 21:26:00,
2013-06-07 17:31:00,59.6,58.7,29.74,NE,43,1.0,1.0,97,0.05,,,1.52,520,WeatherCatV1.14B232,2013-06-07 21:31:00,
2013-06-07 17:36:00,59.6,58.7,29.75,NE,43,1.0,2.0,97,0.05,,,1.52,520,WeatherCatV1.14B232,2013-06-07 21:36:00,
2013-06-07 17:41:00,59.6,58.7,29.75,NE,43,0.0,1.0,97,0.04,,,1.52,520,WeatherCatV1.14B232,2013-06-07 21:41:00,
2013-06-07 17:46:00,59.6,58.7,29.76,NE,42,0.0,1.0,97,0.22,,,1.53,520,WeatherCatV1.14B232,2013-06-07 21:46:00,
2013-06-07 17:51:00,59.7,58.8,29.75,NE,43,0.0,2.0,97,0.51,,,1.57,520,WeatherCatV1.14B232,2013-06-07 21:51:00,
2013-06-07 17:56:00,59.6,58.7,29.74,NE,42,2.0,2.0,97,0.63,,,1.62,520,WeatherCatV1.14B232,2013-06-07 21:56:00,
2013-06-07 18:01:00,59.6,58.7,29.74,NE,43,2.0,2.0,97,0.28,,,1.65,520,WeatherCatV1.14B232,2013-06-07 22:01:00,
2013-06-07 18:06:00,59.6,58.7,29.73,NE,43,0.0,3.0,97,0.16,,,1.66,520,WeatherCatV1.14B232,2013-06-07 22:06:00,
2013-06-07 18:11:00,59.7,58.8,29.73,NE,43,1.0,1.0,97,0.10,,,1.67,520,WeatherCatV1.14B232,2013-06-07 22:11:00,
2013-06-07 18:16:00,59.7,58.8,29.73,NE,43,0.0,2.0,97,0.08,,,1.67,520,WeatherCatV1.14B232,2013-06-07 22:16:00,
2013-06-07 18:21:00,59.8,58.9,29.73,NE,43,1.0,1.0,97,0.05,,,1.67,520,WeatherCatV1.14B232,2013-06-07 22:21:00,
2013-06-07 18:26:00,59.7,58.8,29.73,NE,43,0.0,1.0,97,0.00,,,1.68,520,WeatherCatV1.14B232,2013-06-07 22:26:00,
2013-06-07 18:31:00,59.8,58.9,29.73,NE,43,0.0,1.0,97,0.00,,,1.68,520,WeatherCatV1.14B232,2013-06-07 22:31:00,
2013-06-07 18:36:00,59.7,58.8,29.73,NE,42,0.0,1.0,97,0.07,,,1.69,520,WeatherCatV1.14B232,2013-06-07 22:36:00,
2013-06-07 18:41:00,59.8,58.9,29.73,NE,43,0.0,1.0,97,0.24,,,1.71,520,WeatherCatV1.14B232,2013-06-07 22:41:00,
2013-06-07 18:46:00,59.8,58.9,29.74,NE,43,0.0,0.0,97,0.16,,,1.72,520,WeatherCatV1.14B232,2013-06-07 22:46:00,
2013-06-07 18:51:00,59.8,58.9,29.74,NE,43,0.0,1.0,97,0.14,,,1.73,520,WeatherCatV1.14B232,2013-06-07 22:51:00,
2013-06-07 18:56:00,59.8,58.9,29.74,NE,43,0.0,1.0,97,0.24,,,1.75,520,WeatherCatV1.14B232,2013-06-07 22:56:00,
2013-06-07 19:01:00,59.8,58.9,29.74,NE,43,0.0,1.0,97,0.21,,,1.77,520,WeatherCatV1.14B232,2013-06-07 23:01:00,
2013-06-07 19:06:00,59.9,59.0,29.75,NE,43,0.0,0.0,97,0.65,,,1.80,520,WeatherCatV1.14B232,2013-06-07 23:06:00,
2013-06-07 19:11:00,59.9,59.0,29.74,NE,43,0.0,1.0,97,0.40,,,1.84,520,WeatherCatV1.14B232,2013-06-07 23:11:00,
2013-06-07 19:16:00,59.9,59.0,29.73,NE,43,1.0,1.0,97,0.60,,,1.89,520,WeatherCatV1.14B232,2013-06-07 23:16:00,
2013-06-07 19:21:00,59.9,59.0,29.73,NE,43,0.0,1.0,97,0.32,,,1.92,520,WeatherCatV1.14B232,2013-06-07 23:21:00,
2013-06-07 19:26:00,59.9,59.0,29.73,NE,43,0.0,0.0,97,0.18,,,1.93,520,WeatherCatV1.14B232,2013-06-07 23:26:00,
2013-06-07 19:31:00,59.9,59.0,29.73,NE,43,0.0,3.0,97,0.08,,,1.93,520,WeatherCatV1.14B232,2013-06-07 23:31:00,
2013-06-07 19:36:00,59.8,58.9,29.73,NE,43,0.0,1.0,97,0.07,,,1.94,520,WeatherCatV1.14B232,2013-06-07 23:36:00,
2013-06-07 19:41:00,59.8,58.9,29.72,NE,43,0.0,1.0,97,0.10,,,1.95,520,WeatherCatV1.14B232,2013-06-07 23:41:00,
2013-06-07 19:46:00,59.8,58.9,29.72,NE,43,0.0,1.0,97,0.37,,,1.98,520,WeatherCatV1.14B232,2013-06-07 23:46:00,
2013-06-07 19:51:00,59.8,58.9,29.72,NE,43,2.0,4.0,97,0.34,,,2.01,520,WeatherCatV1.14B232,2013-06-07 23:51:00,
2013-06-07 19:56:00,59.7,58.8,29.72,NE,43,0.0,0.0,97,0.21,,,2.03,520,WeatherCatV1.14B232,2013-06-07 23:56:00,
2013-06-07 20:01:00,59.7,58.8,29.72,NE,43,0.0,1.0,97,0.13,,,2.04,520,WeatherCatV1.14B232,2013-06-08 00:01:00,
2013-06-07 20:06:00,59.7,58.8,29.71,NE,43,1.0,2.0,97,0.18,,,2.05,520,WeatherCatV1.14B232,2013-06-08 00:06:00,
2013-06-07 20:11:00,59.6,58.7,29.70,NE,43,0.0,2.0,97,0.10,,,2.06,520,WeatherCatV1.14B232,2013-06-08 00:11:00,
2013-06-07 20:16:00,59.6,58.7,29.72,NE,43,0.0,1.0,97,0.08,,,2.06,520,WeatherCatV1.14B232,2013-06-08 00:16:00,
2013-06-07 20:21:00,59.7,58.8,29.71,NE,43,0.0,1.0,97,0.05,,,2.06,520,WeatherCatV1.14B232,2013-06-08 00:21:00,
2013-06-07 20:26:00,59.6,58.7,29.71,NE,43,1.0,2.0,97,0.04,,,2.07,520,WeatherCatV1.14B232,2013-06-08 00:26:00,
2013-06-07 20:31:00,59.6,58.7,29.71,NE,43,0.0,1.0,97,0.04,,,2.07,520,WeatherCatV1.14B232,2013-06-08 00:31:00,
2013-06-07 20:36:00,59.6,58.7,29.71,NE,43,0.0,0.0,97,0.08,,,2.08,520,WeatherCatV1.14B232,2013-06-08 00:36:00,
2013-06-07 20:41:00,59.6,58.7,29.72,NE,43,0.0,2.0,97,0.35,,,2.12,520,WeatherCatV1.14B232,2013-06-08 00:41:00,
2013-06-07 20:46:00,59.6,58.7,29.70,NE,43,0.0,1.0,97,0.11,,,2.12,520,WeatherCatV1.14B232,2013-06-08 00:46:00,
2013-06-07 20:51:00,59.6,58.7,29.72,NE,43,0.0,2.0,97,0.68,,,2.15,520,WeatherCatV1.14B232,2013-06-08 00:51:00,
2013-06-07 20:56:00,59.6,58.7,29.71,NE,43,0.0,0.0,97,0.53,,,2.18,520,WeatherCatV1.14B232,2013-06-08 00:56:00,
2013-06-07 21:01:00,59.6,58.7,29.70,NE,43,0.0,1.0,97,0.36,,,2.22,520,WeatherCatV1.14B232,2013-06-08 01:01:00,
2013-06-07 21:06:00,59.5,58.6,29.71,NE,43,0.0,3.0,97,0.12,,,2.23,520,WeatherCatV1.14B232,2013-06-08 01:06:00,
2013-06-07 21:11:00,59.5,58.6,29.70,NE,43,0.0,2.0,97,0.21,,,2.25,520,WeatherCatV1.14B232,2013-06-08 01:11:00,
2013-06-07 21:16:00,59.4,58.5,29.70,NE,43,1.0,1.0,97,0.49,,,2.30,520,WeatherCatV1.14B232,2013-06-08 01:16:00,
2013-06-07 21:21:00,59.3,58.4,29.70,NE,43,0.0,1.0,97,0.37,,,2.33,520,WeatherCatV1.14B232,2013-06-08 01:21:00,
2013-06-07 21:26:00,59.3,58.4,29.70,NE,43,0.0,2.0,97,0.44,,,2.38,520,WeatherCatV1.14B232,2013-06-08 01:26:00,
2013-06-07 21:31:00,59.1,58.2,29.69,NE,43,3.0,6.0,97,2.13,,,2.45,520,WeatherCatV1.14B232,2013-06-08 01:31:00,
2013-06-07 21:36:00,59.0,58.1,29.70,NE,43,0.0,2.0,97,0.85,,,2.55,520,WeatherCatV1.14B232,2013-06-08 01:36:00,
2013-06-07 21:41:00,59.0,58.1,29.71,NE,43,1.0,2.0,97,0.15,,,2.56,520,WeatherCatV1.14B232,2013-06-08 01:41:00,
2013-06-07 21:46:00,59.0,58.1,29.70,NE,43,0.0,1.0,97,0.61,,,2.60,520,WeatherCatV1.14B232,2013-06-08 01:46:00,
2013-06-07 21:51:00,58.9,58.0,29.69,NE,43,1.0,2.0,97,0.80,,,2.64,520,WeatherCatV1.14B232,2013-06-08 01:51:00,
2013-06-07 21:56:00,58.8,57.9,29.69,NE,43,1.0,2.0,97,0.29,,,2.68,520,WeatherCatV1.14B232,2013-06-08 01:56:00,
2013-06-07 22:01:00,58.8,57.9,29.67,NE,43,0.0,2.0,97,0.31,,,2.71,520,WeatherCatV1.14B232,2013-06-08 02:01:00,
2013-06-07 22:06:00,58.7,57.8,29.67,NE,43,1.0,2.0,97,0.23,,,2.73,520,WeatherCatV1.14B232,2013-06-08 02:06:00,
2013-06-07 22:11:00,58.7,57.8,29.68,NE,43,0.0,2.0,97,0.20,,,2.75,520,WeatherCatV1.14B232,2013-06-08 02:11:00,
2013-06-07 22:16:00,58.7,57.8,29.68,NE,43,3.0,3.0,97,0.27,,,2.77,520,WeatherCatV1.14B232,2013-06-08 02:16:00,
2013-06-07 22:21:00,58.7,57.8,29.68,NE,43,3.0,3.0,97,0.49,,,2.82,520,WeatherCatV1.14B232,2013-06-08 02:21:00,
2013-06-07 22:26:00,58.6,57.7,29.68,NE,43,1.0,3.0,97,0.31,,,2.84,520,WeatherCatV1.14B232,2013-06-08 02:26:00,
2013-06-07 22:31:00,58.6,57.7,29.68,NE,43,1.0,2.0,97,0.82,,,2.88,520,WeatherCatV1.14B232,2013-06-08 02:31:00,
2013-06-07 22:36:00,58.6,57.7,29.68,NE,43,0.0,3.0,97,1.27,,,3.00,520,WeatherCatV1.14B232,2013-06-08 02:36:00,
2013-06-07 22:41:00,58.5,57.6,29.68,NE,43,1.0,1.0,97,0.28,,,3.05,520,WeatherCatV1.14B232,2013-06-08 02:41:00,
2013-06-07 22:46:00,58.5,57.6,29.68,NE,43,0.0,1.0,97,0.21,,,3.06,520,WeatherCatV1.14B232,2013-06-08 02:46:00,
2013-06-07 22:51:00,58.4,57.5,29.68,NE,43,1.0,5.0,97,0.15,,,3.07,520,WeatherCatV1.14B232,2013-06-08 02:51:00,
2013-06-07 22:56:00,58.3,57.5,29.67,NE,43,0.0,2.0,97,0.12,,,3.08,520,WeatherCatV1.14B232,2013-06-08 02:56:00,
2013-06-07 23:01:00,58.3,57.5,29.67,NE,43,1.0,2.0,97,0.07,,,3.09,520,WeatherCatV1.14B232,2013-06-08 03:01:00,
2013-06-07 23:06:00,58.2,57.4,29.66,NE,43,1.0,1.0,97,0.07,,,3.09,520,WeatherCatV1.14B232,2013-06-08 03:06:00,
2013-06-07 23:11:00,58.1,57.3,29.66,NE,43,1.0,1.0,97,0.10,,,3.10,520,WeatherCatV1.14B232,2013-06-08 03:11:00,
2013-06-07 23:16:00,58.1,57.3,29.66,NE,43,0.0,1.0,97,0.07,,,3.10,520,WeatherCatV1.14B232,2013-06-08 03:16:00,
2013-06-07 23:21:00,58.0,57.2,29.65,NE,43,1.0,1.0,97,0.04,,,3.10,520,WeatherCatV1.14B232,2013-06-08 03:21:00,
2013-06-07 23:26:00,58.0,57.2,29.65,NE,43,1.0,2.0,97,0.04,,,3.11,520,WeatherCatV1.14B232,2013-06-08 03:26:00,
2013-06-07 23:31:00,57.9,57.1,29.65,NE,43,1.0,3.0,97,0.04,,,3.11,520,WeatherCatV1.14B232,2013-06-08 03:31:00,
2013-06-07 23:36:00,57.9,57.1,29.65,NE,43,0.0,1.0,97,0.07,,,3.12,520,WeatherCatV1.14B232,2013-06-08 03:36:00,
2013-06-07 23:41:00,57.9,57.1,29.65,NE,43,1.0,1.0,97,0.06,,,3.12,520,WeatherCatV1.14B232,2013-06-08 03:41:00,
2013-06-07 23:46:00,57.9,57.1,29.64,NE,43,0.0,1.0,97,0.34,,,3.14,520,WeatherCatV1.14B232,2013-06-08 03:46:00,
2013-06-07 23:51:00,57.8,57.0,29.64,NE,43,1.0,3.0,97,0.31,,,3.17,520,WeatherCatV1.14B232,2013-06-08 03:51:00,
2013-06-07 23:56:00,57.7,56.9,29.63,NE,43,1.0,5.0,97,0.14,,,3.18,520,WeatherCatV1.14B232,2013-06-08 03:56:00,